Weather History for KMTJ - March, 2015

Change the Weather History Date:

Saturday, March 21, 2015

  Actual Average Record
Temperature  
Mean Temperature 50 °F 43 °F  
Max Temperature 68 °F 56 °F 77 °F (2004)
Min Temperature 32 °F 29 °F 26 °F (2002)
Degree Days  
Heating Degree Days 15 22  
Month to date heating degree days 436 529  
Since 1 July heating degree days 4524 5244  
Cooling Degree Days 0 0  
Month to date cooling degree days 0 0  
Year to date cooling degree days 0 0  
Moisture  
Dew Point 21 °F    
Average Humidity 41    
Maximum Humidity 69    
Minimum Humidity 12    
Precipitation  
Precipitation 0.00 in 0.03 in 0.06 in (2013)
Month to date precipitation 0.35 0.66  
Year to date precipitation 1.60 1.89  
Sea Level Pressure  
Sea Level Pressure 30.06 in    
Wind  
Wind Speed 7 mph (SE)    
Max Wind Speed 15 mph    
Max Gust Speed 18 mph    
Visibility 10 miles    
Events      
T = Trace of Precipitation, MM = Missing Value Source: NWS Daily Summary

Daily Weather History Graph

Daily Weather History Graph

Search for Another Location

Airport or City:

Trip Planner

Search our weather history database for the weather conditions in past years. The results will help you decide how hot, cold, wet, or windy it might be!

Date:

Astronomy

Mar. 21, 2015 Rise Set
Actual Time 7:13 AM MDT 7:24 PM MDT
Civil Twilight 6:47 AM MDT 7:50 PM MDT
Nautical Twilight 6:16 AM MDT 8:21 PM MDT
Astronomical Twilight 5:45 AM MDT 8:53 PM MDT
Moon 8:01 AM MDT (3/21) 9:17 PM MDT (3/21)
Length of Visible Light 13h 03m
Length of Day
12h 10m
Waxing Crescent, 3% of the Moon is Illuminated
Mar 21
Waxing Crescent
Mar 27
First Quarter
Apr 4
Full
Apr 11
Last Quarter
Apr 18
New

Hourly Weather History & Observations

Time (MDT) Temp. Windchill Dew Point Humidity Pressure Visibility Wind Dir Wind Speed Gust Speed Precip Events Conditions
12:53 AM 41.0 °F 35.8 °F 26.1 °F 55% 30.13 in 10.0 mi SE 8.1 mph - N/A   Clear
1:53 AM 37.9 °F 33.5 °F 25.0 °F 60% 30.14 in 10.0 mi SE 5.8 mph - N/A   Clear
2:53 AM 39.0 °F 32.8 °F 25.0 °F 57% 30.12 in 10.0 mi SE 9.2 mph - N/A   Clear
3:53 AM 36.0 °F 30.3 °F 24.1 °F 62% 30.11 in 10.0 mi ESE 6.9 mph - N/A   Clear
4:53 AM 35.1 °F 29.3 °F 25.0 °F 67% 30.10 in 10.0 mi SE 6.9 mph - N/A   Clear
5:53 AM 33.1 °F 26.9 °F 25.0 °F 72% 30.11 in 10.0 mi ESE 6.9 mph - N/A   Clear
6:53 AM 33.1 °F 26.1 °F 25.0 °F 72% 30.13 in 10.0 mi SSE 8.1 mph - N/A   Clear
7:53 AM 34.0 °F 28.8 °F 25.0 °F 70% 30.16 in 10.0 mi SE 5.8 mph - N/A   Clear
8:53 AM 43.0 °F 38.8 °F 26.1 °F 51% 30.16 in 10.0 mi SE 6.9 mph - N/A   Clear
9:53 AM 48.9 °F - 24.1 °F 38% 30.15 in 10.0 mi Calm Calm - N/A   Clear
10:53 AM 55.0 °F - 23.0 °F 29% 30.11 in 10.0 mi Calm Calm - N/A   Clear
11:53 AM 59.0 °F - 19.9 °F 22% 30.08 in 10.0 mi West 4.6 mph - N/A   Clear
12:53 PM 63.0 °F - 18.0 °F 18% 30.04 in 10.0 mi Variable 3.5 mph - N/A   Clear
1:53 PM 64.0 °F - 14.0 °F 14% 30.01 in 10.0 mi NNW 8.1 mph - N/A   Clear
2:53 PM 64.9 °F - 10.9 °F 12% 29.98 in 10.0 mi WSW 8.1 mph - N/A   Clear
3:53 PM 66.9 °F - 12.0 °F 12% 29.96 in 10.0 mi North - - N/A   Clear
4:53 PM 66.9 °F - 12.9 °F 12% 29.95 in 10.0 mi NW 12.7 mph - N/A   Clear
5:53 PM 66.9 °F - 17.1 °F 15% 29.95 in 10.0 mi NNW 11.5 mph - N/A   Clear
6:53 PM 63.0 °F - 17.1 °F 17% 29.97 in 10.0 mi NNW 10.4 mph - N/A   Clear
7:53 PM 57.9 °F - 18.0 °F 21% 29.99 in 10.0 mi Calm Calm - N/A   Clear
8:53 PM 51.1 °F - 21.0 °F 31% 30.01 in 10.0 mi ESE 5.8 mph - N/A   Clear
9:53 PM 48.0 °F - 24.1 °F 39% 30.01 in 10.0 mi SE 11.5 mph - N/A   Clear
10:53 PM 46.9 °F - 23.0 °F 39% 30.01 in 10.0 mi SE 11.5 mph - N/A   Clear
11:53 PM 46.0 °F 40.6 °F 21.9 °F 39% 30.00 in 10.0 mi SE 11.5 mph - N/A   Clear